Weather History for KGVL - May, 2014

Change the Weather History Date:

Sunday, May 4, 2014

  Actual Average Record
Temperature  
Mean Temperature 69 °F 65 °F  
Max Temperature 84 °F 76 °F 92 °F (1930)
Min Temperature 53 °F 55 °F 34 °F (1940)
Cooling Degree Days 4 2  
Month to date cooling degree days 4 8  
Year to date cooling degree days 38 47  
Growing Degree Days 19 (Base 50)    
Moisture  
Dew Point 45 °F    
Average Humidity 48    
Maximum Humidity 72    
Minimum Humidity 23    
Precipitation  
Precipitation 0.00 in 0.14 in 2.03 in (2013)
Month to date precipitation 0.00 0.51  
Year to date precipitation 15.00 19.39  
Sea Level Pressure  
Sea Level Pressure 30.03 in    
Wind  
Wind Speed 9 mph (West)    
Max Wind Speed 18 mph    
Max Gust Speed 26 mph    
Visibility 10 miles    
Events      
T = Trace of Precipitation, MM = Missing Value Source: NWS Daily Summary

Daily Weather History Graph

Daily Weather History Graph

Search for Another Location

Airport or City:

Trip Planner

Search our weather history database for the weather conditions in past years. The results will help you decide how hot, cold, wet, or windy it might be!

Date:

Astronomy

May. 04, 2014 Rise Set
Actual Time 6:42 AM EDT 8:21 PM EDT
Civil Twilight 6:15 AM EDT 8:48 PM EDT
Nautical Twilight 5:43 AM EDT 9:21 PM EDT
Astronomical Twilight 5:09 AM EDT 9:55 PM EDT
Moon 11:06 AM EDT 12:25 AM EDT
Length of Visible Light 14h 33m
Length of Day
13h 39m
Waxing Crescent, 27% of the Moon is Illuminated
May 4
Waxing Crescent
May 6
First Quarter
May 14
Full
May 21
Last Quarter
May 28
New

Hourly Weather History & Observations

Time (EDT) Temp. Dew Point Humidity Pressure Visibility Wind Dir Wind Speed Gust Speed Precip Events Conditions
12:53 AM 63.0 °F 44.1 °F 50% 30.04 in 10.0 mi West 6.9 mph - N/A   Clear
1:53 AM 60.1 °F 44.1 °F 55% 30.04 in 10.0 mi West 4.6 mph - N/A   Clear
2:53 AM 59.0 °F 44.1 °F 58% 30.03 in 10.0 mi WNW 3.5 mph - N/A   Clear
3:53 AM 55.9 °F 45.0 °F 67% 30.03 in 10.0 mi West 5.8 mph - N/A   Clear
4:53 AM 55.9 °F 46.0 °F 69% 30.03 in 10.0 mi WSW 6.9 mph - N/A   Clear
5:53 AM 55.9 °F 45.0 °F 67% 30.04 in 10.0 mi West 5.8 mph - N/A   Clear
6:53 AM 54.0 °F 45.0 °F 72% 30.06 in 10.0 mi West 5.8 mph - N/A   Clear
7:53 AM 57.9 °F 46.0 °F 65% 30.09 in 10.0 mi West 5.8 mph - N/A   Clear
8:53 AM 64.0 °F 46.9 °F 54% 30.09 in 10.0 mi West 8.1 mph - N/A   Clear
9:53 AM 69.1 °F 46.9 °F 45% 30.09 in 10.0 mi WNW 8.1 mph - N/A   Clear
10:53 AM 73.0 °F 45.0 °F 37% 30.09 in 10.0 mi West 12.7 mph - N/A   Clear
11:53 AM 75.9 °F 46.0 °F 35% 30.08 in 10.0 mi West 13.8 mph - N/A   Clear
12:53 PM 80.1 °F 45.0 °F 29% 30.06 in 10.0 mi West 12.7 mph - N/A   Clear
1:53 PM 82.0 °F 41.0 °F 23% 30.04 in 10.0 mi West 15.0 mph 24.2 mph N/A   Clear
2:53 PM 82.9 °F 43.0 °F 24% 30.02 in 10.0 mi WNW 15.0 mph 24.2 mph N/A   Clear
3:53 PM 84.0 °F 43.0 °F 24% 30.00 in 10.0 mi WNW 13.8 mph 20.7 mph N/A   Clear
4:53 PM 84.0 °F 42.1 °F 23% 29.99 in 10.0 mi West 12.7 mph 24.2 mph N/A   Clear
5:53 PM 82.9 °F 43.0 °F 24% 29.99 in 10.0 mi WNW 12.7 mph 20.7 mph N/A   Clear
6:53 PM 81.0 °F 45.0 °F 28% 29.99 in 10.0 mi West 11.5 mph - N/A   Clear
7:53 PM 78.1 °F 46.0 °F 32% 29.99 in 10.0 mi West 10.4 mph - N/A   Clear
8:53 PM 72.0 °F 48.0 °F 43% 30.00 in 10.0 mi WSW 6.9 mph - N/A   Clear
9:53 PM 72.0 °F 48.0 °F 43% 30.00 in 10.0 mi WSW 9.2 mph - N/A   Clear
10:53 PM 70.0 °F 48.0 °F 46% 30.01 in 10.0 mi West 6.9 mph - N/A   Clear
11:53 PM 64.9 °F 48.0 °F 54% 30.02 in 10.0 mi West 5.8 mph - N/A   Clear